TimeMST,TemperatureF,Dew PointF,Humidity,Sea Level PressureIn,VisibilityMPH,Wind Direction,Wind SpeedMPH,Gust SpeedMPH,PrecipitationIn,Events,Conditions,WindDirDegrees,DateUTC
12:15 AM,1.4,-0.4,92,30.37,10.0,NW,6.9,-,N/A,,Clear,320,2013-01-02 07:15:00
12:35 AM,-0.4,-4.0,85,30.38,10.0,NNW,4.6,-,N/A,,Clear,330,2013-01-02 07:35:00
12:55 AM,1.4,-2.2,85,30.37,10.0,NNW,4.6,-,N/A,,Clear,340,2013-01-02 07:55:00
1:15 AM,-0.4,-4.0,85,30.37,10.0,NNW,6.9,-,N/A,,Clear,340,2013-01-02 08:15:00
1:35 AM,-0.4,-4.0,85,30.37,10.0,NW,8.1,-,N/A,,Clear,320,2013-01-02 08:35:00
1:55 AM,1.4,-4.0,78,30.37,10.0,NNW,6.9,-,N/A,,Clear,330,2013-01-02 08:55:00
2:15 AM,-0.4,-5.8,78,30.37,10.0,NNW,5.8,-,N/A,,Clear,330,2013-01-02 09:15:00
2:35 AM,1.4,-4.0,78,30.37,10.0,NNW,8.1,-,N/A,,Clear,330,2013-01-02 09:35:00
2:55 AM,1.4,-4.0,78,30.37,10.0,NW,9.2,-,N/A,,Clear,320,2013-01-02 09:55:00
3:15 AM,1.4,-4.0,78,30.37,10.0,NW,8.1,-,N/A,,Clear,320,2013-01-02 10:15:00
3:35 AM,1.4,-4.0,78,30.36,10.0,NW,9.2,-,N/A,,Clear,320,2013-01-02 10:35:00
3:55 AM,1.4,-4.0,78,30.36,10.0,NW,8.1,-,N/A,,Clear,310,2013-01-02 10:55:00
4:15 AM,-0.4,-4.0,85,30.36,10.0,NW,5.8,-,N/A,,Clear,320,2013-01-02 11:15:00
4:35 AM,-0.4,-5.8,78,30.36,10.0,NNW,4.6,-,N/A,,Clear,340,2013-01-02 11:35:00
4:55 AM,-0.4,-5.8,78,30.36,10.0,NW,6.9,-,N/A,,Clear,320,2013-01-02 11:55:00
5:15 AM,-0.4,-5.8,78,30.36,10.0,NNW,3.5,-,N/A,,Clear,340,2013-01-02 12:15:00
5:35 AM,-4.0,-5.8,92,30.36,10.0,NNW,4.6,-,N/A,,Clear,340,2013-01-02 12:35:00
5:55 AM,-0.4,-4.0,85,30.36,10.0,NW,3.5,-,N/A,,Clear,310,2013-01-02 12:55:00
6:47 AM,-2.2,-7.6,78,30.36,10.0,North,3.5,-,N/A,,Clear,360,2013-01-02 13:47:00
7:47 AM,-4.0,-7.6,85,30.37,10.0,WNW,8.1,-,N/A,,Partly Cloudy,300,2013-01-02 14:47:00
8:47 AM,-4.0,-7.6,85,30.39,10.0,NW,5.8,-,N/A,,Partly Cloudy,320,2013-01-02 15:47:00
9:47 AM,-0.4,-5.8,78,30.41,10.0,NW,8.1,-,N/A,,Scattered Clouds,320,2013-01-02 16:47:00
10:47 AM,6.8,-0.4,72,30.42,10.0,WNW,8.1,-,N/A,,Partly Cloudy,300,2013-01-02 17:47:00
11:47 AM,10.4,5.0,79,30.41,10.0,NW,8.1,-,N/A,,Partly Cloudy,310,2013-01-02 18:47:00
12:47 PM,15.8,6.8,68,30.39,10.0,NW,8.1,-,N/A,,Partly Cloudy,310,2013-01-02 19:47:00
1:47 PM,17.6,8.6,68,30.35,10.0,NW,10.4,-,N/A,,Partly Cloudy,310,2013-01-02 20:47:00
2:47 PM,12.2,6.8,79,30.36,10.0,ESE,8.1,-,N/A,,Partly Cloudy,120,2013-01-02 21:47:00
3:50 PM,12.2,6.8,79,30.36,10.0,ESE,10.4,-,N/A,,Partly Cloudy,120,2013-01-02 22:50:00
4:55 PM,6.8,1.4,79,30.37,10.0,Calm,Calm,-,N/A,,Partly Cloudy,0,2013-01-02 23:55:00
5:47 PM,10.4,5.0,79,30.39,10.0,WNW,4.6,-,N/A,,Partly Cloudy,300,2013-01-03 00:47:00
6:47 PM,8.6,5.0,85,30.39,10.0,NW,9.2,-,N/A,,Clear,310,2013-01-03 01:47:00
7:47 PM,10.4,6.8,85,30.38,10.0,NW,10.4,-,N/A,,Clear,310,2013-01-03 02:47:00
8:47 PM,6.8,1.4,79,30.38,10.0,NNW,6.9,-,N/A,,Clear,330,2013-01-03 03:47:00
9:47 PM,6.8,3.2,85,30.39,10.0,NNW,4.6,-,N/A,,Clear,330,2013-01-03 04:47:00
10:15 PM,5.0,1.4,85,30.39,10.0,NNW,8.1,-,N/A,,Clear,330,2013-01-03 05:15:00
10:35 PM,5.0,3.2,92,30.39,10.0,NNW,5.8,-,N/A,,Clear,330,2013-01-03 05:35:00
10:50 PM,3.2,-0.4,85,30.39,10.0,NW,5.8,-,N/A,,Clear,310,2013-01-03 05:50:00
10:55 PM,5.0,3.2,92,30.39,10.0,NNW,8.1,-,N/A,,Clear,330,2013-01-03 05:55:00
11:15 PM,10.4,5.0,79,30.39,10.0,NW,10.4,-,N/A,,Clear,310,2013-01-03 06:15:00
11:35 PM,10.4,5.0,79,30.38,10.0,NW,10.4,-,N/A,,Clear,310,2013-01-03 06:35:00